Location: Atherton
(17.2661°S, 145.4859°E)
Time: 19:35:55
(UTC+10:00)

ISS - Visible Passes

Search period start: 10 April 2026 00:00
Search period end: 20 April 2026 00:00
Orbit: 416 x 424 km, 51.6° (Epoch: 10 April)

Date Brightness Start Highest point End Pass type
(mag) Time Alt. Az. Time Alt. Az. Time Alt. Az.
10 Apr -2.2 05:25:13 21° NW 05:25:13 21° NW 05:27:27 10° N visible
10 Apr -2.5 18:42:05 10° WNW 18:45:17 41° SW 18:48:32 10° SSE visible
12 Apr -0.5 18:46:57 10° SW 18:47:35 10° SW 18:48:12 10° SW visible
